Regional Weather Roundup
Issued by NWS Sterling, VA

Home | Current Version | Previous Version | Text Only | Print | Product List | Glossary On
Versions: 1 2 3 4 5 6 7 8 9 10 11 12 13 14 15 16 17 18 19 20 21 22 23 24 25 26 27 28 29 30 31 32 33 34 35 36 37 38 39 40 41 42 43 44 45 46 47 48 49 50
000
ASUS41 KLWX 090610
RWRLWX

REGIONAL WEATHER ROUNDUP
NATIONAL WEATHER SERVICE BALTIMORE MD/WASHINGTON DC
100 AM EST TUE FEB 09 2016

Note: "FAIR" indicates few or no clouds below 12,000 feet
with no significant weather and/or obstructions to visibility.
 TC=TEMPERATURE CELSIUS

 * =Non NWS site. Station does not report precipitation (e.g. rain,
    snow, etc.), thunder, or fog.

DCZ001-MDZ009-015-VAZ040>042-051-053>054-090700-
WASHINGTON METRO

CITY           SKY/WX    TMP DP  RH WIND       PRES   REMARKS
WASHINGTON NAT LGT RAIN  38  34  85 SE7       29.64F
DULLES         LGT RAIN  37  34  89 S6        29.62F
ANDREWS AFB    CLOUDY    36  34  91 E5        29.62F
FT BELVOIR     CLOUDY    38  34  85 VRB2      29.63F
QUANTICO       CLOUDY    40  36  86 S3        29.64F
COLLEGE PARK*  CLOUDY    37  36  93 SE3       29.64F
LEESBURG*      LGT RAIN  37  37 100 S5        29.63S
MANASSAS*      CLOUDY    37  37 100 SE3       29.63F
GAITHERSBURG*  CLOUDY    36  30  80 SE6       29.66F

$$

MDZ006>007-011-014-090700-
BALTIMORE METRO

CITY           SKY/WX    TMP DP  RH WIND       PRES   REMARKS
BWI AIRPORT    LGT RAIN  36  34  92 E8        29.64F
MD SCIENCE CTR   N/A     36  34  92 MISG      29.65S
MARTIN STATE   DRIZZLE   36  36 100 E6        29.68F
ANNAPOLIS      CLOUDY    37  35  92 E9        29.64F
FORT MEADE*    CLOUDY    36  34  93 E5        29.66F

$$

MDZ012-015-019>023-090700-
MARYLAND EASTERN SHORE

CITY           SKY/WX    TMP DP  RH WIND       PRES   REMARKS
OCEAN CITY     MOCLDY    40  35  83 E8        29.66F
SALISBURY      CLOUDY    36  35  96 E6        29.65F
BAY BRIDGE AP* LGT RAIN  36  34  93 CALM      29.66F
CAMBRIDGE*     CLOUDY    34  34 100 E6        29.64F
EASTON*        CLOUDY    37  37 100 SE6       29.69F

$$

MDZ017>025-090700-
SOUTHERN MARYLAND

CITY           SKY/WX    TMP DP  RH WIND       PRES   REMARKS
PATUXENT RIVER CLOUDY    38  34  85 E8        29.63F
ST INIGOES     CLOUDY    39  35  86 E9        29.62F
LEONARDTOWN*   CLOUDY    37  34  87 CALM      29.64F

$$

MDZ003>005-090700-
NORTH CENTRAL MARYLAND

CITY           SKY/WX    TMP DP  RH WIND       PRES   REMARKS
FREDERICK*     LGT RAIN  36  36 100 SE3       29.65F
HAGERSTOWN APT CLOUDY    37  32  82 SE7       29.59F
WESTMINSTER*   DRIZZLE   36  34  93 SE6       29.61F

$$

MDZ501>502-090700-
WESTERN MARYLAND

CITY           SKY/WX    TMP DP  RH WIND       PRES   REMARKS
OAKLAND*       CLOUDY    28  27  93 CALM      29.50F
CUMBERLAND*    CLOUDY    34  34 100 CALM      29.63F VSB 3/4

$$

VAZ025>031-090700-
SHENANDOAH VALLEY

CITY           SKY/WX    TMP DP  RH WIND       PRES   REMARKS
WINCHESTER*    LGT RAIN  36  34  93 S3        29.59F
FRONT ROYAL*   CLOUDY    36  34  93 CALM      29.58F
LURAY*         CLOUDY    34  34 100 CALM      29.57F
NEW MARKET*    CLOUDY    33  32  97 CALM      29.57F
STAUNTON*      CLOUDY    33  32  96 SW3       29.58F FOG
WAYNESBORO*    CLOUDY    33  29  84 SW5       29.56F

$$

WVZ021-048>050-054>055-090700-
EASTERN WEST VIRGINIA PANHANDLE

CITY           SKY/WX    TMP DP  RH WIND       PRES   REMARKS
MARTINSBURG    CLOUDY    35  33  92 S6        29.60F
PETERSBURG*    MIX PCPN  34  32  94 CALM      29.59F

$$

VAZ036>039-050-090700-
CENTRAL FOOTHILLS

CITY           SKY/WX    TMP DP  RH WIND       PRES   REMARKS
CHARLOTTESVILL CLOUDY    37  34  89 E5        29.59S FOG
CULPEPER*      MIX PCPN  33  33  99 CALM      29.62F
ORANGE*        DRIZZLE   36  36 100 CALM      29.62F
GORDONSVILLE*  CLOUDY    35  35 100 CALM      29.60F FOG
WARRENTON*     LGT RAIN  37  37  98 CALM      29.61F

$$

VAZ055>057-090700-
NORTH AND CENTRAL PIEDMONT

CITY           SKY/WX    TMP DP  RH WIND       PRES   REMARKS
FREDERICKSBRG* DRIZZLE   37  37 100 CALM      29.61F
STAFFORD*      RAIN      37  35  92 CALM      29.66F

$$

NCZ024-NYZ072-PAZ021-071-VAZ022-071-090700-
OTHER REGIONAL OBSERVATIONS

CITY           SKY/WX    TMP DP  RH WIND       PRES   REMARKS
NEW YORK CITY  CLOUDY    28  21  75 E9        29.75F WCI  19
PHILADELPHIA   CLOUDY    32  28  85 E9        29.71F WCI  24
PITTSBURGH     LGT SNOW  32  30  92 CALM      29.56F FOG
ROANOKE        FAIR      32  24  72 W3        29.62F
RICHMOND       CLOUDY    38  37  97 E5        29.59F
RALEIGH        FOG       37  36  93 CALM      29.62F VSB 1/4

$$

ANZ530>537-090700-
MARINE OBSERVATIONS

STATION/POSITION TIME  TEMP    WIND        PRES
                       AIR SEA DIR/SP/G
                 (UTC) (F)     (DEG/KT/KT) (MB)
THOMAS PT LIGHT  NOT AVBL
BALT KEY BRIDGE  0500   36     110/ 14/ 16 1004.5F
COVE POINT       0500   37     140/ 11/ 14 1004.5F
LEWISETTA        0500   40 41  140/  8/ 10 1003.6F
SOLOMONS ISLAND  0500   39 41  120/ 10/ 12   N/A
PINEY POINT      0500          140/ 12/ 13   N/A

$$




USA.gov is the U.S. government's official web portal to all federal, state and local government web resources and services.